Weather History for CYCY - October, 2012

Change the Weather History Date:

Friday, October 19, 2012

  Actual Average Record
Temperature  
Mean Temperature 21 °F -  
Max Temperature 28 °F 13 °F 37 °F (2004)
Min Temperature 14 °F 2 °F 5 °F (1996)
Degree Days  
Heating Degree Days 44    
Moisture  
Dew Point 23 °F    
Average Humidity 92    
Maximum Humidity 100    
Minimum Humidity 68    
Precipitation  
Precipitation 0.00 in 0.03 in - ()
Sea Level Pressure  
Sea Level Pressure 29.76 in    
Wind  
Wind Speed 14 mph ()    
Max Wind Speed 39 mph    
Max Gust Speed 44 mph    
Visibility 2.5 miles    
Events Snow    
Averages and records for this station are not official NWS values.
T = Trace of Precipitation, MM = Missing Value Source: Averaged Metar Reports

Daily Weather History Graph

Daily Weather History Graph

Search for Another Location

Airport or City:

Trip Planner

Search our weather history database for the weather conditions in past years. The results will help you decide how hot, cold, wet, or windy it might be!

Date:

Astronomy

Oct. 19, 2012 Rise Set
Actual Time 9:09 AM ADT 5:26 PM ADT
Civil Twilight 8:02 AM ADT 6:33 PM ADT
Nautical Twilight 6:50 AM ADT 7:45 PM ADT
Astronomical Twilight 5:36 AM ADT 8:58 PM ADT
Moon No Moon Rise No Moon Set
Length of Visible Light 10h 30m
Length of Day
8h 16m
Waxing Crescent, 23% of the Moon is Illuminated
Oct 19
Waxing Crescent
Oct 22
First Quarter
Oct 29
Full
Nov 6
Last Quarter
Nov 13
New

Hourly Weather History & Observations

Time (ADT) Temp. Windchill Dew Point Humidity Pressure Visibility Wind Dir Wind Speed Gust Speed Precip Events Conditions
12:00 AM 23.0 °F 18.4 °F 17.6 °F 80% 29.70 in 9.0 mi WNW 3.5 mph - N/A   Clear
1:00 AM 19.4 °F 9.5 °F 14.0 °F 80% 29.69 in 9.0 mi North 8.1 mph - N/A   Clear
2:00 AM 19.4 °F 9.5 °F 14.0 °F 80% 29.69 in 9.0 mi West 8.1 mph - N/A   Clear
3:00 AM 17 °F - 11 °F 68% 29.70 in 9 mi WNW 9.2 mph - -  
3:00 AM 15.8 °F 8.6 °F 10.4 °F 79% 29.70 in 9.0 mi West 4.6 mph - N/A   Clear
4:00 AM 14.0 °F 0.5 °F 10.4 °F 86% 29.70 in 9.0 mi WNW 11.5 mph - N/A   Clear
5:00 AM 17.6 °F 1.7 °F 14.0 °F 86% 29.71 in 9.0 mi WNW 18.4 mph - N/A   Partly Cloudy
6:00 AM 19 °F - 14 °F 73% 29.73 in 9 mi West 17.3 mph - -  
6:00 AM 19.4 °F 4.1 °F 14.0 °F 80% 29.73 in 9.0 mi West 18.4 mph - N/A   Partly Cloudy
7:00 AM 23.0 °F 9.2 °F 21.2 °F 93% 29.74 in 9.0 mi WNW 17.3 mph - N/A   Clear
7:08 AM 23.0 °F 9.6 °F 23.0 °F 100% 29.73 in 2.5 mi West 16.1 mph - N/A Snow Light Snow
7:12 AM 23.0 °F 10.6 °F 23.0 °F 100% 29.73 in 2.0 mi West 13.8 mph - N/A Snow Light Snow
7:18 AM 24.8 °F 14.6 °F 23.0 °F 93% 29.73 in 1.4 mi West 10.4 mph - N/A Snow Light Snow
7:24 AM 24.8 °F 15.3 °F 23.0 °F 93% 29.73 in 1.0 mi West 9.2 mph - N/A Snow Light Snow
7:25 AM 24.8 °F 15.3 °F 23.0 °F 93% 29.73 in 1.0 mi West 9.2 mph - N/A Snow Light Snow
7:30 AM 24.8 °F 16.9 °F 23.0 °F 93% 29.74 in 0.8 mi West 6.9 mph - N/A Snow Light Snow
7:39 AM 24.8 °F 17.9 °F 23.0 °F 93% 29.74 in 0.6 mi West 5.8 mph - N/A Snow Light Snow
7:41 AM 24.8 °F 17.9 °F 23.0 °F 93% 29.74 in 0.6 mi West 5.8 mph - N/A Snow Light Snow
7:52 AM 24.8 °F 19.1 °F 23.0 °F 93% 29.74 in 0.6 mi WSW 4.6 mph - N/A Snow Light Snow
7:58 AM 24.8 °F 16.9 °F 24.8 °F 100% 29.73 in 0.6 mi SW 6.9 mph - N/A Snow Light Snow
8:00 AM 24.8 °F 16.9 °F 24.8 °F 100% 29.75 in 0.8 mi WSW 6.9 mph - N/A Snow Light Snow
8:06 AM 24.8 °F 17.9 °F 23.0 °F 93% 29.73 in 1.0 mi WSW 5.8 mph - N/A Snow Light Snow
8:14 AM 24.8 °F 16.9 °F 24.8 °F 100% 29.73 in 1.1 mi West 6.9 mph - N/A Snow Light Snow
8:15 AM 24.8 °F 16.9 °F 24.8 °F 100% 29.73 in 1.1 mi WSW 6.9 mph - N/A Snow Light Snow
8:20 AM 24.8 °F 16.9 °F 24.8 °F 100% 29.73 in 1.0 mi West 6.9 mph - N/A Snow Light Snow
8:23 AM 24.8 °F 16.9 °F 24.8 °F 100% 29.73 in 1.0 mi SW 6.9 mph - N/A Snow Light Snow
8:31 AM 24.8 °F 17.9 °F 24.8 °F 100% 29.73 in 0.8 mi SW 5.8 mph - N/A Snow Light Snow
8:33 AM 26.6 °F 17.5 °F 24.8 °F 93% 29.73 in 0.6 mi WSW 9.2 mph - N/A Snow Light Snow
8:54 AM 26.6 °F 18.2 °F 24.8 °F 93% 29.73 in 0.4 mi SW 8.1 mph - N/A Snow Light Snow
9:00 AM 26 °F - 26 °F 97% 29.74 in 0 mi WSW 6.9 mph - -   Overcast
9:00 AM 26.6 °F 20.0 °F 24.8 °F 93% 29.74 in 0.4 mi West 5.8 mph - N/A Snow Light Snow
9:09 AM 26.6 °F 20.0 °F 26.6 °F 100% 29.72 in 0.4 mi WSW 5.8 mph - N/A Snow Light Snow
9:10 AM 26.6 °F 19.1 °F 26.6 °F 100% 29.72 in 0.8 mi WSW 6.9 mph - N/A Snow Light Snow
9:14 AM 26.6 °F 20.0 °F 26.6 °F 100% 29.72 in 1.0 mi WSW 5.8 mph - N/A Snow Light Snow
9:22 AM 26.6 °F 20.0 °F 26.6 °F 100% 29.73 in 1.0 mi WNW 5.8 mph - N/A Snow Light Snow
9:36 AM 28.4 °F 16.6 °F 26.6 °F 93% 29.73 in 1.0 mi NW 16.1 mph - N/A Snow Light Snow
9:37 AM 28.4 °F 16.6 °F 26.6 °F 93% 29.73 in 0.6 mi NW 16.1 mph - N/A Snow Light Snow
9:39 AM 28.4 °F 17.0 °F 26.6 °F 93% 29.72 in 0.4 mi NNW 15.0 mph - N/A Snow Light Snow
9:56 AM 28.4 °F 16.6 °F 26.6 °F 93% 29.74 in 1.0 mi NNW 16.1 mph - N/A Snow Light Snow
9:57 AM 28.4 °F 16.6 °F 26.6 °F 93% 29.74 in 1.0 mi NNW 16.1 mph - N/A Snow Light Snow
10:00 AM 28.4 °F 15.8 °F 26.6 °F 93% 29.75 in 1.1 mi NNW 18.4 mph - N/A Snow Light Snow
10:03 AM 28.4 °F 15.4 °F 26.6 °F 93% 29.74 in 0.6 mi NW 19.6 mph - N/A Snow Light Snow
10:04 AM 28.4 °F 15.8 °F 26.6 °F 93% 29.74 in 0.5 mi NW 18.4 mph - N/A Snow Light Snow
10:05 AM 28.4 °F 15.4 °F 26.6 °F 93% 29.74 in 0.4 mi NW 19.6 mph 27.6 mph N/A Snow Light Snow
10:09 AM 28.4 °F 12.7 °F 26.6 °F 93% 29.72 in 0.1 mi NW 29.9 mph 36.8 mph N/A Snow Light Snow
10:29 AM 26.6 °F 11.1 °F 26.6 °F 100% 29.75 in 0.2 mi NW 26.5 mph 34.5 mph N/A Snow Light Snow
10:47 AM 26.6 °F 9.1 °F 26.6 °F 100% 29.74 in 0.4 mi NW 35.7 mph 41.4 mph N/A Snow Light Snow
10:49 AM 26.6 °F 8.5 °F 26.6 °F 100% 29.74 in 0.4 mi NW 39.1 mph - N/A Snow Light Snow
11:00 AM 26.6 °F 8.9 °F 26.6 °F 100% 29.76 in 0.5 mi NW 36.8 mph 42.6 mph N/A Snow Snow
12:00 PM 26 °F - 25 °F 95% 29.77 in 0 mi WNW 36.8 mph - - Snow Light Snow
12:00 PM 26.6 °F 8.9 °F 24.8 °F 93% 29.77 in 0.4 mi WNW 36.8 mph 42.6 mph N/A Snow Snow
1:00 PM 26.6 °F 8.9 °F 24.8 °F 93% 29.78 in 0.2 mi NW 36.8 mph 42.6 mph N/A Snow Light Snow
1:05 PM 26.6 °F 8.9 °F 24.8 °F 93% 29.76 in 0.2 mi NW 36.8 mph 42.6 mph N/A Snow Light Snow
1:25 PM 26.6 °F 9.3 °F 24.8 °F 93% 29.77 in 0.2 mi NW 34.5 mph 43.7 mph N/A Snow Light Snow
1:32 PM 26.6 °F 9.1 °F 24.8 °F 93% 29.77 in 0.4 mi NW 35.7 mph - N/A Snow Light Snow
1:39 PM 26.6 °F 9.6 °F 24.8 °F 93% 29.77 in 0.4 mi NW 33.4 mph 39.1 mph N/A   Mostly Cloudy
1:40 PM 26.6 °F 9.8 °F 24.8 °F 93% 29.77 in 0.6 mi NW 32.2 mph 39.1 mph N/A   Mostly Cloudy
1:58 PM 26.6 °F 10.0 °F 24.8 °F 93% 29.78 in 1.0 mi NW 31.1 mph 36.8 mph N/A   Scattered Clouds
2:00 PM 26.6 °F 9.8 °F 24.8 °F 93% 29.79 in 1.0 mi NW 32.2 mph - N/A   Scattered Clouds
2:14 PM 24.8 °F 7.6 °F 23.0 °F 93% 29.78 in 1.1 mi NW 31.1 mph - N/A   Partly Cloudy
2:46 PM 24.8 °F 7.9 °F 23.0 °F 93% 29.80 in 1.6 mi NW 29.9 mph - N/A   Partly Cloudy
3:00 PM 26 °F - 24 °F 88% 29.82 in 2 mi NW 28.8 mph - -  
3:00 PM 26.6 °F 10.3 °F 24.8 °F 93% 29.82 in 1.8 mi NW 29.9 mph - N/A   Clear
3:07 PM 26.6 °F 10.0 °F 24.8 °F 93% 29.81 in 1.4 mi NW 31.1 mph 36.8 mph N/A   Clear
3:14 PM 26.6 °F 10.0 °F 24.8 °F 93% 29.81 in 1.0 mi WNW 31.1 mph 36.8 mph N/A Snow Light Snow
3:23 PM 24.8 °F 7.6 °F 24.8 °F 100% 29.81 in 1.1 mi WNW 31.1 mph - N/A Snow Light Snow
3:41 PM 24.8 °F 8.7 °F 23.0 °F 93% 29.82 in 1.4 mi WNW 26.5 mph 32.2 mph N/A   Overcast
3:46 PM 24.8 °F 8.1 °F 23.0 °F 93% 29.82 in 3.0 mi WNW 28.8 mph - N/A   Mostly Cloudy
3:51 PM 26.6 °F 10.3 °F 23.0 °F 86% 29.82 in 2.5 mi WNW 29.9 mph - N/A   Mostly Cloudy
4:00 PM 26.6 °F 10.3 °F 23.0 °F 86% 29.84 in 2.2 mi WNW 29.9 mph - N/A   Overcast
4:38 PM 26.6 °F 10.8 °F 24.8 °F 93% 29.84 in 4.0 mi WNW 27.6 mph - N/A   Overcast
5:00 PM 24.8 °F 9.3 °F 23.0 °F 93% 29.86 in 9.0 mi WNW 24.2 mph - N/A   Mostly Cloudy
6:00 PM 25 °F - 22 °F 83% 29.87 in 9 mi WNW 24.2 mph - -  
6:00 PM 24.8 °F 9.3 °F 21.2 °F 86% 29.87 in 9.0 mi WNW 24.2 mph - N/A   Partly Cloudy
7:00 PM 26.6 °F 10.8 °F 23.0 °F 86% 29.88 in 3.0 mi WNW 27.6 mph - N/A   Overcast
10:00 PM 23.0 °F 6.9 °F 19.4 °F 86% 29.90 in 9.0 mi NW 24.2 mph - N/A   Clear
11:00 PM 21.2 °F 10.9 °F 15.8 °F 80% 29.93 in 9.0 mi West 9.2 mph - N/A   Scattered Clouds